RH
100 100 99 99 100 100 97 91 87 87 89 90 89 88 86 87 87 86 84 82 83 85 85 84 82 83 84 82 82 80 78 79 76 79 90 96 94 89 85 88 88 81 78 82 85 90 96 99 100 100 100 100 100 100 98 95 94 93 94 93 93 95 96
100 99 98 99 99 98 94 89 86 84 84 86 87 87 87 86 85 84 85 87 87 88 87 85 83 84 84 81 81 81 80 79 77 76 80 86 88 87 89 92 88 85 85 84 83 85 90 97 100 100 100 100 100 100 98 95 94 95 97 96 94 96 96
100 100 99 100 99 96 91 88 86 84 84 85 84 85 86 87 85 84 87 89 88 88 87 85 85 85 85 84 82 81 81 78 77 77 76 78 82 83 86 86 85 88 90 88 87 86 87 93 97 98 100 100 100 100 99 97 96 97 100 98 96 96 94
100 100 100 100 100 98 92 86 85 85 84 83 82 82 83 85 85 85 88 89 87 87 87 85 86 86 85 86 83 80 80 78 77 77 77 79 81 82 83 82 80 81 82 84 86 85 86 93 97 98 99 100 99 100 100 99 99 99 101 100 97 95 94
100 98 97 98 99 96 89 84 84 85 83 82 81 81 82 83 84 85 88 89 89 89 87 85 85 85 85 86 83 79 78 78 78 78 79 82 82 81 82 83 80 76 74 76 79 79 80 87 94 98 99 99 99 99 99 100 100 100 100 99 96 95 97
99 97 93 91 90 89 85 83 83 83 82 81 81 80 79 80 81 83 86 86 88 90 87 84 83 83 83 84 83 81 79 79 79 79 79 81 81 79 79 81 80 76 75 75 75 76 78 84 93 98 98 96 96 98 100 100 100 100 100 99 98 97 99
99 99 94 86 83 84 83 81 79 79 79 79 79 77 75 77 79 81 83 84 86 88 87 83 81 80 80 81 81 81 80 78 77 78 78 79 79 78 78 81 78 75 76 77 74 74 77 82 90 96 96 93 93 97 100 100 100 100 100 100 100 97 97
98 100 98 89 83 81 80 78 77 77 77 76 75 74 73 75 79 80 82 83 83 84 84 82 81 81 80 79 79 79 79 78 77 78 79 79 79 79 80 80 77 75 77 78 74 72 74 74 78 86 92 93 95 96 95 96 100 99 97 98 99 96 95
96 100 100 93 86 80 76 74 75 76 76 74 73 73 74 76 79 80 80 80 79 78 79 79 80 81 80 78 78 79 79 79 79 77 77 79 79 79 79 79 78 77 78 79 76 74 73 71 70 76 83 86 92 97 94 93 96 91 87 92 93 93 94
94 96 96 92 86 81 77 74 74 76 76 75 75 74 75 78 79 78 78 77 75 73 73 76 78 80 80 78 78 79 80 81 80 77 76 77 78 78 78 78 77 76 77 79 78 76 75 72 70 72 76 77 82 92 96 97 94 82 78 85 86 85 89
90 91 90 88 85 82 81 78 75 76 76 76 77 76 75 76 77 77 77 75 73 70 70 73 77 80 80 80 80 80 82 84 82 80 79 78 78 78 79 79 78 77 78 76 75 77 75 73 71 71 75 76 76 83 89 95 93 80 74 80 81 76 74
86 89 89 88 86 82 81 79 76 75 74 72 75 75 72 73 76 76 76 74 72 69 69 73 77 81 81 82 83 83 86 86 84 83 83 82 80 80 81 82 81 80 79 76 75 78 77 74 73 72 74 76 75 77 80 85 88 80 72 73 76 69 57
90 93 92 89 88 85 80 76 74 73 72 71 73 73 70 71 74 74 73 73 72 69 70 72 76 81 82 82 83 85 87 88 86 85 86 85 83 83 83 83 82 82 82 79 78 79 78 76 76 73 73 74 73 74 74 77 79 74 67 66 69 63 48
97 96 95 92 88 85 80 76 74 72 71 72 73 72 70 69 71 72 71 73 73 70 69 71 75 79 81 81 82 85 87 88 87 86 86 84 82 84 85 82 80 80 82 82 79 77 76 77 77 74 72 72 71 69 70 72 69 62 59 61 63 59 47
98 96 97 95 88 82 79 76 76 74 71 71 72 71 70 69 70 71 71 73 73 71 70 70 73 76 76 76 79 83 86 86 85 85 85 82 81 85 86 82 79 78 80 82 81 76 76 77 76 73 70 70 68 65 65 66 64 57 54 55 57 54 47
96 93 94 94 87 81 76 74 76 75 71 71 72 70 68 68 70 70 72 74 73 72 72 71 72 72 71 72 77 81 83 83 83 84 83 79 80 85 86 81 78 77 77 79 77 75 77 78 75 70 67 65 63 61 61 62 60 56 52 51 53 52 46
95 90 92 93 87 79 74 73 74 72 72 73 72 70 68 67 70 71 71 73 74 72 72 72 71 70 70 71 74 77 79 80 81 81 79 77 78 84 85 81 78 77 78 76 71 70 73 74 73 71 69 65 61 58 59 59 57 54 51 49 49 50 46
95 93 97 96 88 80 75 74 73 71 73 74 70 69 70 69 70 69 67 69 73 72 70 70 69 68 70 72 72 73 75 76 77 79 78 76 78 81 81 78 75 75 78 75 68 66 67 67 69 69 68 67 64 61 59 59 57 53 50 47 44 46 45
97 95 97 99 96 89 83 82 81 76 72 71 71 70 70 70 70 66 65 68 70 70 68 66 65 65 67 68 67 68 69 69 70 73 74 74 78 82 83 81 78 76 75 70 66 64 62 61 62 61 58 62 64 60 57 59 59 54 49 46 42 42 43
98 95 95 99 99 93 86 82 81 79 74 69 70 71 69 69 70 66 66 68 67 66 65 63 62 61 60 60 60 61 63 64 65 67 69 71 77 83 86 86 83 79 74 69 65 58 51 50 52 50 48 50 52 50 50 53 56 53 48 44 42 41 41
95 97 97 99 99 91 84 80 75 77 80 73 68 69 69 68 67 67 67 66 63 63 62 62 60 55 52 53 54 54 56 58 60 63 67 71 76 81 83 81 76 73 71 68 59 48 42 42 43 42 41 40 41 43 46 47 48 47 45 43 43 42 41
96 99 98 100 98 87 84 86 80 78 85 81 70 66 67 63 61 63 65 62 62 60 58 59 57 50 48 52 54 52 52 54 58 61 67 73 77 80 80 75 69 66 65 60 51 43 42 42 40 39 40 38 38 41 43 42 42 43 44 43 42 43 43
99 100 99 100 98 87 85 90 84 78 81 83 76 67 62 57 54 58 61 60 61 59 54 54 52 47 47 49 50 51 51 53 57 60 66 73 76 76 72 66 62 61 57 51 47 45 44 43 42 42 43 42 42 42 41 41 41 41 42 43 44 45 45
100 100 99 100 98 93 91 89 84 79 77 80 78 69 60 55 51 53 58 60 60 57 53 52 50 49 48 46 46 46 46 50 55 60 65 69 68 67 64 58 55 55 52 48 48 49 48 48 48 49 50 50 49 49 48 48 49 48 48 51 55 54 53
100 100 100 100 97 95 94 88 83 81 78 77 76 69 61 57 52 52 56 58 58 56 53 52 51 49 47 44 44 44 44 50 57 62 66 65 61 59 58 56 54 53 52 51 51 51 51 52 53 53 53 53 52 52 52 52 54 55 56 58 60 60 61
100 99 100 100 97 95 93 88 84 81 78 76 73 67 62 58 53 53 55 55 56 55 52 52 51 47 43 42 42 43 47 55 60 63 65 63 59 57 55 54 54 53 54 54 53 52 52 53 53 53 53 53 54 55 55 56 58 59 61 62 62 63 66
99 99 100 99 98 97 94 89 85 81 77 75 70 64 61 58 56 55 55 54 55 54 52 51 49 44 42 44 44 44 50 59 63 64 64 61 59 57 54 52 51 51 51 51 50 50 50 49 50 53 54 56 58 61 64 65 66 66 68 70 70 74 77
99 100 101 100 98 98 94 89 85 81 78 75 69 62 59 58 59 58 58 58 56 55 54 51 48 46 46 46 46 48 54 62 65 65 64 62 60 59 57 54 52 52 53 55 56 57 56 56 57 60 64 67 70 72 72 71 71 72 74 76 78 80 81
100 99 100 100 98 95 92 88 83 79 78 76 70 64 62 61 61 62 64 63 59 59 59 55 52 52 51 48 48 52 57 62 65 67 69 68 67 67 67 64 62 62 63 66 67 67 67 66 64 65 68 72 75 76 76 78 80 80 80 81 80 78 77
100 101 100 99 97 93 89 85 81 78 77 76 71 67 66 65 64 66 68 67 65 64 66 66 62 58 56 52 51 54 58 62 65 68 71 71 71 72 70 68 67 66 67 71 73 74 74 70 64 64 66 70 73 75 75 77 77 75 72 69 65 61 58
94 98 100 99 96 91 86 83 82 79 76 72 70 68 67 66 66 67 67 70 71 70 74 77 72 65 62 59 55 54 59 66 72 75 77 77 76 73 70 69 70 69 68 71 74 74 73 69 65 65 67 69 70 70 69 68 65 60 53 47 42 40 39
90 92 96 99 99 94 87 83 80 78 75 71 68 67 65 63 63 65 67 71 73 73 77 81 77 71 68 66 65 64 67 71 78 82 83 81 78 76 74 73 75 75 73 73 73 71 71 70 68 67 68 66 64 62 59 55 53 50 44 37 32 32 38
96 91 90 92 94 93 89 85 81 77 74 73 71 68 65 62 60 61 62 66 70 72 74 77 76 72 69 68 69 70 70 70 72 76 79 77 72 73 75 74 73 75 76 76 74 71 69 68 66 64 62 57 52 47 41 35 33 33 32 32 33 39 49
101 97 91 85 84 85 83 81 80 76 72 73 74 72 71 69 66 64 62 61 62 66 69 71 72 71 68 67 66 63 62 62 62 64 70 74 74 76 80 79 75 75 76 75 72 69 66 63 60 55 49 42 34 28 25 25 26 28 31 39 50 59 66
97 100 98 90 84 83 82 80 80 78 74 73 73 73 73 71 70 70 68 64 61 61 62 65 68 71 70 69 67 64 62 64 65 66 71 77 80 79 79 78 75 74 73 69 64 59 54 48 43 38 32 27 24 24 27 32 36 43 53 64 71 73 72
88 94 98 96 91 87 84 83 83 83 82 79 77 79 80 76 74 74 73 70 66 61 58 59 62 66 70 72 74 74 74 76 77 75 74 75 75 72 70 68 65 61 54 47 41 38 36 33 32 31 31 32 35 40 44 47 54 65 75 79 76 73 70
82 85 90 93 94 94 90 85 83 82 81 79 78 80 79 75 73 74 76 76 72 64 60 58 56 58 62 65 67 70 72 74 74 71 69 67 63 58 55 50 44 40 36 35 37 40 43 45 47 49 50 52 54 58 59 61 69 76 78 76 73 70 68
Wind_Speed
20 18 19 19 19 19 20 20 19 19 18 17 17 16 15 15 16 16 16 17 18 20 20 21 21 19 20 20 21 21 20 20 18 20 23 21 20 19 15 11 5 5 14 14 11 9 4 1 4 5 6 7 6 6 7 9 9 8 8 8 7 7 6
19 18 19 19 19 19 20 19 18 18 18 17 16 16 15 16 16 15 16 18 19 19 19 19 19 19 20 20 21 22 20 19 17 18 22 23 22 21 16 11 6 11 15 11 11 12 6 3 3 3 5 6 6 7 7 9 9 8 8 7 7 6 6
18 17 18 18 19 19 19 19 19 19 19 17 16 16 16 16 16 15 17 19 19 19 19 19 20 20 21 20 19 20 20 19 18 18 21 22 22 21 17 12 11 14 12 7 11 12 8 5 3 3 6 6 5 7 9 9 9 8 8 7 6 6 5
19 18 18 18 19 19 19 19 19 20 19 18 16 16 16 16 17 17 18 19 19 19 18 18 21 22 21 20 18 18 19 19 19 19 20 21 20 20 17 13 13 15 13 11 15 17 12 7 5 5 7 7 7 8 8 9 9 8 8 7 7 5 4
20 21 21 21 21 20 20 19 19 19 19 18 17 17 17 17 18 18 18 18 19 18 17 17 20 21 21 20 19 18 18 19 20 19 21 21 20 21 19 14 13 14 16 16 18 21 17 14 12 8 7 8 6 5 7 8 7 7 8 8 6 4 3
20 22 22 22 21 21 21 20 20 20 20 19 18 18 19 19 20 19 18 19 19 18 17 17 18 19 20 20 19 18 18 18 19 19 20 20 19 21 20 16 14 15 17 16 17 20 18 16 16 11 8 8 5 4 6 7 6 6 7 7 5 4 4
20 21 22 21 20 20 21 21 21 22 22 21 20 20 19 19 19 19 17 17 18 18 18 17 17 18 19 18 18 18 18 17 18 18 18 18 18 19 20 18 15 16 17 15 15 19 18 18 19 16 12 7 5 6 5 6 7 6 6 8 6 4 5
20 20 22 21 20 20 22 22 22 23 23 22 21 20 20 19 19 18 17 17 17 18 18 18 18 18 17 17 17 17 17 16 16 17 17 17 17 18 19 17 15 16 17 14 14 18 19 18 20 23 20 10 4 4 4 4 7 7 7 9 9 7 6
20 20 21 20 19 20 22 22 23 23 23 21 20 20 20 19 19 18 17 17 17 18 18 17 17 18 18 17 17 17 17 16 16 16 17 17 17 17 17 16 15 16 17 15 14 16 18 18 20 25 26 18 10 4 2 3 5 6 8 10 10 10 10
21 21 21 21 20 20 21 22 22 23 22 20 20 21 21 20 19 19 18 18 17 17 17 17 17 18 18 17 18 18 17 16 15 15 15 16 17 17 16 16 15 15 17 17 15 16 18 18 20 25 26 23 17 9 4 3 4 7 10 12 12 11 12
23 22 22 21 20 21 21 22 22 23 22 20 21 22 21 20 20 19 19 18 17 17 17 17 17 17 18 17 17 17 16 16 15 14 14 15 15 16 16 16 15 15 16 16 16 18 19 19 21 25 24 21 17 13 10 6 5 10 13 13 14 12 12
24 24 23 22 21 21 21 22 23 24 23 23 24 24 21 21 21 20 19 19 18 18 17 17 17 17 18 18 17 16 16 16 15 14 14 14 15 15 15 15 15 14 14 14 15 17 19 19 20 24 24 19 15 13 15 12 5 10 16 14 14 13 11
23 22 21 21 22 21 21 23 24 23 24 25 26 24 23 22 22 21 20 20 20 19 17 16 16 17 17 17 16 16 16 17 16 15 14 14 15 15 15 15 15 14 13 13 15 16 18 18 20 23 24 21 15 11 15 15 6 6 15 15 14 14 11
20 20 20 20 20 20 21 22 23 24 25 26 25 24 24 23 22 22 20 20 20 19 18 17 16 17 17 17 17 16 17 17 16 14 14 14 14 15 15 14 14 14 14 14 14 15 17 18 19 22 23 22 18 12 13 16 8 5 11 14 14 15 12
19 19 19 19 20 21 22 22 22 24 26 26 25 25 24 23 22 21 20 19 20 19 18 17 16 17 17 16 17 17 17 17 16 15 14 14 15 15 15 15 14 14 14 14 13 13 16 17 18 21 22 23 22 17 14 15 12 9 11 13 15 16 14
20 20 20 21 22 23 24 23 22 25 27 26 27 26 24 23 22 22 20 19 19 19 17 17 17 17 17 16 16 17 17 17 16 16 15 15 15 16 15 15 14 14 14 14 13 13 15 17 18 19 21 23 24 22 18 17 15 13 13 15 17 18 16
21 23 23 24 25 25 25 24 24 26 28 28 28 26 24 24 23 22 22 20 19 19 18 17 17 17 16 16 16 17 17 16 16 16 16 15 15 16 16 16 15 14 14 15 14 13 13 15 18 20 22 23 25 25 23 22 19 16 16 17 18 19 18
19 22 22 21 23 25 25 25 27 29 30 29 29 27 25 25 25 23 21 20 20 20 19 18 18 17 16 16 16 16 16 15 15 15 15 14 15 15 15 15 15 14 13 14 15 13 11 14 16 18 20 23 25 25 25 26 24 20 19 19 19 19 18
18 21 21 20 19 20 22 25 27 29 30 31 29 28 28 27 26 24 21 21 21 20 19 19 17 16 16 16 15 15 15 15 14 14 14 14 14 15 15 14 14 15 14 14 14 12 11 13 15 16 18 20 23 23 23 25 26 24 22 21 19 18 19
20 22 23 22 19 20 23 26 26 27 29 32 31 29 29 28 26 24 23 22 20 20 20 19 17 16 15 15 16 17 17 16 15 14 14 14 14 16 16 13 11 13 13 13 13 12 12 15 18 18 18 19 20 19 17 19 23 24 23 20 18 18 19
22 22 22 21 20 22 26 28 28 26 26 30 32 29 28 28 27 25 24 22 20 21 21 19 18 16 14 14 15 17 18 18 16 15 14 13 14 15 15 11 9 12 13 12 13 11 10 12 15 16 16 16 16 14 13 16 20 22 21 19 17 17 17
22 20 21 21 20 24 27 27 29 27 23 24 29 31 28 27 26 25 25 23 21 22 20 19 19 17 13 12 12 13 16 17 17 16 13 12 12 13 13 10 10 13 13 13 14 11 8 8 11 14 14 12 12 13 14 16 18 18 18 16 14 13 14
20 21 22 22 22 24 27 27 27 28 26 23 25 30 30 27 26 26 26 24 22 22 20 19 20 18 15 13 12 13 14 15 16 16 13 12 11 12 12 11 12 15 15 15 15 12 10 9 10 11 11 9 9 10 11 12 12 13 13 11 10 9 10
18 20 23 23 24 25 27 29 27 29 31 27 25 30 31 27 27 26 25 25 23 21 21 20 20 17 16 15 13 13 13 15 17 16 14 13 12 13 15 15 16 17 17 16 16 15 14 14 14 14 13 11 10 9 8 8 6 5 5 4 4 4 4
18 20 22 24 26 25 26 29 28 28 31 28 26 30 31 28 27 26 25 24 23 22 22 21 19 17 16 16 15 13 13 15 17 17 16 16 16 16 19 20 20 19 18 17 17 16 16 16 15 15 14 13 12 10 9 8 8 7 5 5 5 4 3
18 21 21 23 27 27 27 28 28 28 29 27 27 30 30 28 27 26 25 25 23 23 23 22 20 18 16 16 15 14 13 16 19 19 18 19 18 18 20 21 21 20 19 17 16 16 16 15 13 12 11 10 9 8 7 6 6 6 5 4 4 2 1
12 18 21 23 25 27 28 26 25 26 27 25 27 30 29 27 27 26 25 25 24 22 22 22 21 19 16 15 14 14 15 17 19 19 19 20 20 20 20 20 20 20 18 17 16 15 15 14 13 11 10 9 7 6 6 5 5 4 4 4 3 3 2
1 10 18 23 25 26 27 25 24 26 28 26 28 30 29 27 27 25 24 24 23 22 21 22 22 20 18 16 15 15 17 19 19 19 19 20 20 20 19 18 19 19 18 16 15 14 13 12 12 11 10 9 8 6 5 4 3 2 2 3 3 3 3
10 6 11 20 23 24 24 24 23 25 26 25 26 28 28 26 25 25 24 23 23 22 21 21 21 20 19 18 17 18 19 20 21 21 21 20 20 20 19 18 19 19 18 16 14 12 11 9 9 9 8 8 7 6 5 4 3 1 2 2 3 3 4
16 14 12 15 20 22 23 24 23 23 24 24 24 25 27 26 24 24 24 24 24 24 22 21 21 21 20 20 19 20 21 22 22 22 21 20 20 20 19 18 17 16 16 15 13 11 9 7 6 6 6 5 5 4 3 3 2 2 2 2 2 3 4
21 19 17 16 18 23 25 24 23 24 25 26 25 24 26 27 24 23 24 23 24 25 24 22 22 23 23 22 22 23 23 22 22 20 20 20 19 18 18 16 14 14 13 12 10 8 6 5 5 5 4 4 4 3 3 3 2 1 0 1 2 2 3
22 21 20 18 18 23 28 28 26 26 27 27 27 25 26 28 27 25 24 23 22 23 23 21 21 22 23 22 22 24 24 24 22 20 19 19 16 14 13 12 11 11 10 9 7 6 4 3 4 4 3 2 1 2 3 3 3 4 4 3 2 2 3
22 21 21 21 21 24 28 29 29 29 28 28 28 26 26 28 29 27 25 24 23 22 21 19 18 19 21 22 22 22 23 23 22 19 15 13 11 9 9 9 8 7 6 6 5 4 3 2 1 1 0 1 1 2 3 3 3 3 3 2 2 3 3
21 21 22 24 25 26 27 27 28 31 31 29 28 27 27 29 29 28 27 26 25 23 21 19 17 16 17 18 18 17 15 14 13 11 10 9 10 11 12 12 11 10 8 5 3 2 2 1 2 2 3 3 3 3 2 1 2 2 1 2 3 4 5
21 21 22 24 26 26 26 26 27 29 30 29 28 26 26 27 28 27 27 26 25 23 21 19 17 15 14 13 12 10 10 10 10 11 12 13 13 13 12 11 10 9 7 5 3 3 3 3 4 4 4 4 3 3 2 2 2 2 4 7 8 8 8
20 20 20 22 24 24 23 23 24 25 27 28 28 25 24 25 25 26 25 24 23 22 20 19 18 16 15 13 11 10 11 11 11 12 14 14 13 12 10 8 7 6 5 4 3 2 2 2 3 3 3 3 3 3 4 4 5 8 10 10 10 10 10
19 18 18 20 22 23 23 23 23 23 25 27 27 25 24 25 26 25 24 22 21 20 19 18 17 16 15 13 12 12 12 12 11 11 12 12 11 9 7 6 6 5 5 5 5 5 5 5 5 5 5 6 6 6 7 8 9 11 11 11 11 11 10
Wind_Direction
195 196 205 216 218 213 213 215 216 215 213 213 212 212 212 210 211 214 213 210 206 200 197 197 195 195 198 196 194 197 202 204 200 189 183 183 190 197 201 209 232 189 176 174 172 163 137 140 168 179 191 189 196 205 204 202 198 198 206 214 222 227 231
198 200 205 213 218 216 214 215 217 217 215 213 212 212 214 213 212 210 204 202 199 195 193 193 195 195 195 195 195 199 205 207 208 202 193 192 197 199 197 199 183 164 173 180 174 164 146 148 155 159 178 177 186 196 193 188 190 196 207 220 226 227 236
199 200 199 205 212 213 214 216 217 218 216 215 213 212 214 213 208 202 198 198 196 194 194 192 193 195 194 195 196 199 207 211 211 211 207 205 204 200 199 196 172 161 165 169 173 169 153 150 153 150 167 169 175 187 189 189 193 197 201 218 228 229 232
203 201 197 199 205 208 211 215 217 217 218 218 217 213 210 206 200 196 195 197 196 195 198 197 196 197 196 196 197 201 209 214 215 217 217 217 211 203 205 210 197 186 185 186 184 177 164 153 147 147 168 175 173 180 189 194 198 197 200 217 225 224 211
210 208 205 203 205 207 210 213 214 216 218 217 215 208 201 197 195 195 195 197 198 199 202 203 203 202 200 200 201 203 209 214 217 221 220 221 217 208 208 218 221 216 209 203 193 186 181 171 159 150 160 169 166 173 185 192 200 202 207 212 207 200 188
217 216 214 212 212 211 209 210 212 214 214 211 209 203 196 193 195 197 198 198 200 204 205 204 203 203 201 201 203 204 209 212 216 221 221 223 223 216 214 220 229 227 217 211 201 194 189 172 158 149 155 163 148 144 174 183 183 188 204 210 200 190 187
222 222 221 220 219 214 209 208 210 211 208 206 205 202 197 196 197 197 198 198 201 205 206 204 201 200 200 202 205 207 210 213 216 219 220 224 226 220 218 222 230 226 217 214 206 197 191 177 164 155 149 145 131 138 155 178 180 174 191 208 210 203 195
223 225 225 224 222 215 209 209 210 208 205 204 204 203 199 196 196 196 196 196 198 201 202 202 202 202 204 206 207 209 211 212 213 215 218 221 221 218 218 222 227 223 215 214 212 205 200 191 180 168 158 142 122 142 144 168 187 189 194 204 210 217 218
224 223 223 223 221 216 211 210 210 207 203 204 202 198 196 194 194 194 194 194 196 198 200 202 205 207 207 207 207 208 210 211 211 213 217 219 218 218 218 220 222 220 218 218 215 212 209 202 192 180 170 162 151 146 158 168 181 198 209 211 211 220 226
224 222 221 220 218 218 215 212 210 206 204 206 202 194 192 194 195 195 195 195 197 199 200 204 207 207 206 206 207 209 211 211 210 211 215 217 218 219 218 218 220 222 222 222 220 217 213 206 196 188 181 175 164 152 161 186 188 196 208 217 219 222 221
225 225 223 218 216 215 213 211 207 204 204 204 199 194 194 196 197 198 197 196 198 198 199 202 206 207 206 207 210 213 213 211 208 207 211 214 215 215 215 215 219 222 223 224 223 217 211 207 201 192 188 185 178 170 165 162 195 204 205 214 222 225 219
225 226 222 216 215 212 207 205 203 203 203 201 196 195 195 196 197 199 198 198 197 196 197 200 204 207 208 209 211 213 213 210 208 205 208 214 214 212 211 213 216 217 219 222 218 214 211 210 206 197 192 190 190 188 177 162 172 210 208 214 219 220 223
222 222 219 215 214 211 205 202 202 202 202 199 195 194 195 197 198 198 199 199 196 193 194 195 198 203 207 208 210 211 211 209 208 209 211 215 215 213 212 212 214 214 213 214 210 209 212 214 211 204 198 193 193 200 190 176 158 195 205 216 219 216 220
219 219 219 216 214 209 204 203 204 203 199 197 195 193 195 197 197 198 198 199 195 192 192 191 193 198 202 206 210 212 211 209 209 212 214 216 213 212 213 212 212 210 209 210 207 208 213 216 213 207 201 196 197 205 202 192 176 165 195 210 216 216 219
217 217 219 220 213 204 201 203 205 200 197 197 196 193 194 196 197 198 197 197 194 192 193 192 193 196 198 204 210 211 211 211 211 211 213 216 211 209 213 212 207 203 203 205 204 206 212 212 211 208 203 201 204 211 213 206 195 179 189 203 210 216 220
216 212 213 217 214 204 200 200 200 199 199 199 196 193 194 195 197 197 197 197 196 194 196 196 196 197 199 203 207 208 210 212 211 210 212 214 210 210 213 209 204 201 199 200 201 202 206 207 210 212 210 209 211 215 219 218 212 201 196 201 209 216 218
220 214 208 212 214 208 202 198 198 201 201 197 194 193 193 193 194 195 197 198 197 196 197 199 199 198 200 201 201 201 205 209 210 210 212 213 211 213 213 207 205 203 197 198 202 200 198 203 210 217 219 219 220 221 222 223 223 218 208 204 210 216 218
228 225 216 215 218 211 204 200 199 200 199 195 193 192 191 190 191 194 197 196 194 195 198 200 201 199 198 200 199 200 202 205 209 211 213 216 214 214 213 210 209 206 198 197 201 201 201 200 206 218 225 226 226 226 228 227 225 223 220 216 212 213 215
234 237 230 221 222 215 205 202 198 196 197 194 191 191 191 191 191 193 195 194 194 198 199 198 198 196 197 199 199 200 201 204 210 214 217 218 216 214 211 211 211 207 200 195 193 198 205 200 201 215 223 224 225 228 232 231 226 222 223 223 216 211 212
236 237 229 218 218 215 208 204 197 194 196 194 191 192 192 190 191 194 195 192 194 199 198 196 195 194 196 201 204 205 205 208 212 218 223 220 218 216 210 208 204 193 192 193 189 193 203 201 202 211 214 216 223 228 227 223 219 216 217 217 215 212 212
244 237 224 214 213 211 206 199 192 193 197 193 191 192 191 190 192 195 193 188 188 193 196 198 194 189 190 198 206 207 208 211 214 219 224 217 216 216 210 208 196 179 183 194 191 187 186 186 191 196 199 207 218 220 211 206 208 209 211 211 211 211 212
254 242 225 214 208 203 201 194 187 191 199 198 192 188 188 192 193 192 189 185 185 188 192 195 188 180 180 185 189 192 196 204 211 216 216 206 205 208 204 200 182 173 183 192 185 177 166 166 180 186 188 197 206 204 200 200 201 202 205 208 210 209 210
254 241 224 215 204 196 196 192 186 189 197 203 197 187 187 192 191 187 185 184 186 186 186 188 184 179 179 180 178 179 187 199 208 210 204 191 188 188 181 172 166 170 180 178 165 154 144 142 155 163 163 166 176 182 185 187 193 199 203 205 209 215 219
247 233 217 207 197 191 192 191 186 187 193 201 199 189 187 191 189 187 186 184 187 186 184 185 185 184 186 187 188 188 191 200 201 197 188 176 168 165 162 159 161 165 164 155 146 137 131 128 129 131 129 128 131 134 139 138 141 165 179 166 155 170 196
237 229 211 197 190 187 188 188 185 185 190 195 194 187 187 189 187 187 186 185 187 187 184 185 187 189 190 192 196 198 197 198 191 182 176 169 159 156 156 154 152 153 148 144 141 137 131 125 123 123 121 120 119 117 121 120 114 117 125 119 111 107 97
228 225 208 191 187 187 185 184 182 182 187 190 186 182 185 186 184 184 183 185 187 187 185 185 187 189 189 190 194 197 196 191 182 175 172 169 163 160 159 155 150 147 143 141 141 139 137 132 128 125 121 118 114 110 110 109 106 110 112 112 115 103 23
222 214 200 185 182 182 179 178 176 177 181 182 177 176 178 178 177 177 178 181 183 183 183 185 187 187 186 184 186 188 186 181 174 169 167 167 166 164 163 160 155 148 145 144 144 142 142 140 137 134 131 129 123 111 103 93 88 89 81 79 86 79 40
116 196 188 178 173 172 171 170 169 171 172 171 169 170 170 169 167 166 167 171 174 174 175 178 181 181 179 178 178 178 175 169 164 160 157 158 158 157 157 156 152 147 144 143 142 139 139 141 140 137 133 132 130 123 117 105 87 67 43 37 38 36 16
48 91 156 163 159 158 159 159 160 163 161 158 157 157 157 156 155 152 152 156 160 161 160 165 171 172 174 177 175 169 163 159 155 153 149 147 146 144 144 144 144 143 141 139 137 137 138 141 144 139 133 129 126 123 119 110 98 73 30 15 2 354 340
50 65 92 125 135 139 141 143 147 151 148 141 138 137 139 140 140 140 141 143 147 148 146 150 159 162 166 172 172 166 161 156 153 151 146 144 144 142 140 140 140 143 144 141 138 138 141 147 149 143 138 138 140 138 125 112 101 78 42 7 343 331 320
52 62 70 86 109 122 127 128 132 136 133 128 124 122 125 128 127 128 131 133 136 138 137 139 147 153 159 165 167 165 162 154 148 145 143 141 140 139 139 138 137 139 142 143 144 144 146 153 154 148 148 158 169 172 159 155 175 184 22 343 339 342 336
56 63 69 74 89 108 116 120 124 126 122 119 117 115 116 118 116 114 116 121 126 130 133 135 141 146 149 153 155 155 153 147 137 133 134 131 127 127 131 131 129 127 129 135 144 147 141 140 144 143 151 174 206 246 252 255 256 258 266 279 312 358 23
62 69 77 81 84 94 106 115 121 122 118 113 111 109 108 108 107 105 107 110 114 117 123 128 136 142 143 144 145 145 146 142 134 129 130 130 132 140 144 145 148 147 140 135 136 138 135 129 124 125 197 254 272 276 277 286 287 281 282 297 6 32 47
63 71 84 93 93 93 97 103 110 115 115 110 103 98 97 99 98 97 98 102 103 103 108 114 122 133 140 144 147 150 152 150 146 150 155 154 159 162 159 159 166 174 180 178 173 180 202 250 283 290 295 293 283 271 261 261 272 277 292 95 96 92 87
61 70 84 97 100 99 100 102 103 107 110 110 104 97 93 93 92 89 89 91 93 95 99 105 110 115 124 134 145 159 170 173 177 184 176 163 159 160 159 158 160 167 180 190 201 221 237 253 262 266 270 266 254 241 213 204 213 164 119 112 109 102 90
60 66 76 90 99 102 106 108 106 104 106 107 106 100 95 94 93 90 86 86 88 89 91 97 102 106 109 116 124 134 144 148 157 170 167 157 153 154 153 150 149 154 166 173 178 187 190 197 202 200 197 188 166 150 146 142 128 118 113 106 98 88 75
64 66 70 80 91 98 103 106 105 104 103 102 99 95 92 91 91 87 83 83 84 86 87 89 94 98 101 109 116 121 129 137 146 159 161 153 149 150 149 147 145 148 151 148 147 145 137 134 133 132 132 129 126 126 125 120 116 113 105 91 80 72 62